• în România
  • Lista ţărilor
  • Pe 7 zile
  • Temperatura apei
  • Hartă satelitară
  • Meteo pe hartă
  • Widget-uri
  • user-avatar
    Intrare

    Meteo pe oră la Trofimovo

    Astăzi, 19 Aprilie, Joi

    Timp Temperatura Precipitaţii Vânt Presiune Umiditate
    00:00 +6°C° 0,3 mm 5 m/s 741 mmHg 91%
    01:00 +6°C° 0,3 mm 5 m/s 741 mmHg 91%
    02:00 +7°C° 0 mm 3 m/s 741 mmHg 91%
    03:00 +6°C° 0,4 mm 4 m/s 741 mmHg 91%
    04:00 +5°C° 0,4 mm 4 m/s 741 mmHg 91%
    05:00 +5°C° 0,4 mm 5 m/s 740 mmHg 91%
    06:00 +5°C° 0,5 mm 5 m/s 741 mmHg 91%
    07:00 +5°C° 0,5 mm 5 m/s 741 mmHg 91%
    08:00 +5°C° 0 mm 5 m/s 741 mmHg 90%
    09:00 +5°C° 0,3 mm 5 m/s 741 mmHg 90%
    10:00 +6°C° 0,3 mm 4 m/s 741 mmHg 89%
    11:00 +6°C° 0,3 mm 4 m/s 741 mmHg 88%
    12:00 +7°C° 0,1 mm 4 m/s 741 mmHg 85%
    13:00 +7°C° 0,1 mm 5 m/s 742 mmHg 83%
    14:00 +8°C° 0,1 mm 5 m/s 742 mmHg 81%
    15:00 +10°C° 0 mm 4 m/s 742 mmHg 77%
    16:00 +10°C° 0 mm 4 m/s 742 mmHg 73%
    17:00 +11°C° 0 mm 4 m/s 742 mmHg 69%
    18:00 +10°C° 0 mm 4 m/s 743 mmHg 72%
    19:00 +8°C° 0 mm 4 m/s 743 mmHg 75%
    20:00 +8°C° 0 mm 3 m/s 744 mmHg 77%
    21:00 +7°C° 0 mm 3 m/s 744 mmHg 79%
    22:00 +7°C° 0 mm 3 m/s 744 mmHg 81%
    23:00 +5°C° 0 mm 3 m/s 745 mmHg 83%

    Mâine, 20 Aprilie, Vineri

    Timp Temperatura Precipitaţii Vânt Presiune Umiditate
    00:00 +5°C° 0 mm 3 m/s 745 mmHg 86%
    01:00 +4°C° 0 mm 3 m/s 745 mmHg 90%
    02:00 +4°C° 0 mm 3 m/s 745 mmHg 93%
    03:00 +4°C° 0 mm 3 m/s 745 mmHg 94%
    04:00 +4°C° 0 mm 3 m/s 746 mmHg 95%
    05:00 +3°C° 0 mm 3 m/s 746 mmHg 96%
    06:00 +4°C° 0 mm 3 m/s 746 mmHg 92%
    07:00 +5°C° 0 mm 3 m/s 746 mmHg 89%
    08:00 +7°C° 0 mm 3 m/s 746 mmHg 85%
    09:00 +7°C° 0 mm 3 m/s 746 mmHg 82%
    10:00 +8°C° 0 mm 3 m/s 747 mmHg 79%
    11:00 +9°C° 0 mm 3 m/s 747 mmHg 76%
    12:00 +10°C° 0 mm 2 m/s 746 mmHg 71%
    13:00 +12°C° 0 mm 2 m/s 746 mmHg 65%
    14:00 +13°C° 0 mm 2 m/s 746 mmHg 59%
    15:00 +13°C° 0 mm 2 m/s 746 mmHg 59%
    16:00 +13°C° 0 mm 2 m/s 745 mmHg 59%
    17:00 +13°C° 0 mm 2 m/s 745 mmHg 59%
    18:00 +12°C° 0 mm 2 m/s 744 mmHg 66%
    19:00 +9°C° 0 mm 2 m/s 744 mmHg 73%
    20:00 +8°C° 0 mm 2 m/s 743 mmHg 81%
    21:00 +8°C° 0 mm 2 m/s 742 mmHg 80%
    22:00 +8°C° 0 mm 3 m/s 742 mmHg 79%
    23:00 +8°C° 0 mm 3 m/s 741 mmHg 79%

    Poimâine, 21 Aprilie, Sâmbătă

    Timp Temperatura Precipitaţii Vânt Presiune Umiditate
    00:00 +7°C° 0 mm 4 m/s 740 mmHg 80%
    01:00 +7°C° 0 mm 4 m/s 739 mmHg 81%
    02:00 +8°C° 0 mm 4 m/s 738 mmHg 82%
    03:00 +7°C° 0 mm 4 m/s 737 mmHg 85%
    04:00 +7°C° 0 mm 4 m/s 736 mmHg 89%
    05:00 +7°C° 0 mm 4 m/s 735 mmHg 92%
    06:00 +8°C° 0 mm 5 m/s 734 mmHg 88%
    07:00 +9°C° 0 mm 5 m/s 733 mmHg 84%
    08:00 +11°C° 0 mm 6 m/s 732 mmHg 80%
    09:00 +11°C° 0,2 mm 6 m/s 731 mmHg 81%
    10:00 +11°C° 0,2 mm 6 m/s 731 mmHg 82%
    11:00 +11°C° 0,2 mm 6 m/s 730 mmHg 82%
    12:00 +11°C° 0,2 mm 7 m/s 730 mmHg 77%
    13:00 +11°C° 0,2 mm 7 m/s 730 mmHg 71%
    14:00 +11°C° 0,2 mm 8 m/s 730 mmHg 66%
    15:00 +10°C° 0 mm 7 m/s 731 mmHg 64%
    16:00 +9°C° 0 mm 7 m/s 731 mmHg 63%
    17:00 +8°C° 0 mm 6 m/s 731 mmHg 61%
    18:00 +8°C° 0 mm 6 m/s 732 mmHg 65%
    19:00 +7°C° 0 mm 5 m/s 732 mmHg 69%
    20:00 +6°C° 0 mm 4 m/s 733 mmHg 73%
    21:00 +6°C° 0 mm 4 m/s 733 mmHg 76%
    22:00 +5°C° 0 mm 4 m/s 733 mmHg 78%
    23:00 +5°C° 0 mm 4 m/s 734 mmHg 81%

    22 Aprilie, Duminică

    Timp Temperatura Precipitaţii Vânt Presiune Umiditate
    00:00 +5°C° 0,1 mm 4 m/s 734 mmHg 81%
    01:00 +4°C° 0,1 mm 4 m/s 734 mmHg 82%
    02:00 +4°C° 0,1 mm 4 m/s 735 mmHg 82%
    03:00 +4°C° 0,1 mm 4 m/s 735 mmHg 83%
    04:00 +4°C° 0,1 mm 4 m/s 735 mmHg 84%
    05:00 +4°C° 0,1 mm 4 m/s 735 mmHg 84%
    06:00 +4°C° 0,2 mm 4 m/s 736 mmHg 83%
    07:00 +4°C° 0,2 mm 4 m/s 736 mmHg 81%
    08:00 +4°C° 0,2 mm 4 m/s 736 mmHg 80%
    09:00 +5°C° 0,1 mm 4 m/s 736 mmHg 78%
    10:00 +5°C° 0,1 mm 4 m/s 736 mmHg 76%
    11:00 +6°C° 0,1 mm 4 m/s 736 mmHg 74%
    12:00 +7°C° 0,2 mm 4 m/s 736 mmHg 71%
    13:00 +7°C° 0,2 mm 4 m/s 736 mmHg 69%
    14:00 +8°C° 0,2 mm 4 m/s 737 mmHg 66%
    15:00 +7°C° 0,5 mm 4 m/s 737 mmHg 69%
    16:00 +7°C° 0,5 mm 4 m/s 737 mmHg 71%
    17:00 +7°C° 0,5 mm 3 m/s 737 mmHg 73%
    18:00 +5°C° 0,2 mm 3 m/s 737 mmHg 79%
    19:00 +5°C° 0,2 mm 2 m/s 738 mmHg 84%
    20:00 +5°C° 0,2 mm 1 m/s 738 mmHg 90%
    21:00 +5°C° 0 mm 1 m/s 738 mmHg 91%
    22:00 +4°C° 0 mm 1 m/s 739 mmHg 93%
    23:00 +3°C° 0 mm 1 m/s 739 mmHg 95%

    23 Aprilie, Luni

    Timp Temperatura Precipitaţii Vânt Presiune Umiditate
    00:00 +2°C° 0 mm 1 m/s 739 mmHg 94%
    01:00 +2°C° 0 mm 1 m/s 740 mmHg 93%
    02:00 +1°C° 0 mm 1 m/s 740 mmHg 92%
    03:00 +1°C° 0 mm 1 m/s 740 mmHg 90%
    04:00 +1°C° 0 mm 1 m/s 740 mmHg 89%
    05:00 +1°C° 0 mm 1 m/s 741 mmHg 88%
    06:00 +2°C° 0 mm 1 m/s 741 mmHg 80%
    07:00 +4°C° 0 mm 1 m/s 741 mmHg 72%
    08:00 +6°C° 0 mm 1 m/s 741 mmHg 64%
    09:00 +7°C° 0 mm 0 m/s 742 mmHg 58%
    10:00 +9°C° 0 mm 0 m/s 742 mmHg 52%
    11:00 +10°C° 0 mm 0 m/s 742 mmHg 46%
    12:00 +10°C° 0 mm 0 m/s 741 mmHg 45%
    13:00 +11°C° 0 mm 1 m/s 741 mmHg 43%
    14:00 +11°C° 0 mm 1 m/s 741 mmHg 42%
    15:00 +11°C° 0 mm 1 m/s 741 mmHg 43%
    16:00 +11°C° 0 mm 1 m/s 741 mmHg 44%
    17:00 +10°C° 0 mm 1 m/s 740 mmHg 45%
    18:00 +9°C° 0 mm 1 m/s 740 mmHg 51%
    19:00 +8°C° 0 mm 1 m/s 740 mmHg 57%
    20:00 +6°C° 0 mm 1 m/s 740 mmHg 63%
    21:00 +6°C° 0 mm 1 m/s 740 mmHg 65%
    22:00 +5°C° 0 mm 1 m/s 740 mmHg 68%
    23:00 +5°C° 0 mm 1 m/s 740 mmHg 70%

    24 Aprilie, Marţi

    Timp Temperatura Precipitaţii Vânt Presiune Umiditate
    00:00 +4°C° 0 mm 1 m/s 739 mmHg 73%
    01:00 +3°C° 0 mm 2 m/s 739 mmHg 75%
    02:00 +3°C° 0 mm 2 m/s 738 mmHg 77%
    03:00 +3°C° 0 mm 2 m/s 738 mmHg 78%
    04:00 +3°C° 0 mm 2 m/s 737 mmHg 78%
    05:00 +2°C° 0 mm 3 m/s 737 mmHg 79%
    06:00 +3°C° 0,1 mm 3 m/s 736 mmHg 76%
    07:00 +4°C° 0,1 mm 4 m/s 736 mmHg 74%
    08:00 +5°C° 0,1 mm 4 m/s 735 mmHg 71%
    09:00 +5°C° 0,8 mm 5 m/s 735 mmHg 75%
    10:00 +5°C° 0,8 mm 5 m/s 734 mmHg 79%
    11:00 +5°C° 0,8 mm 5 m/s 734 mmHg 83%
    12:00 +5°C° 0,7 mm 5 m/s 734 mmHg 85%
    13:00 +5°C° 0,7 mm 4 m/s 733 mmHg 88%
    14:00 +5°C° 0,7 mm 4 m/s 733 mmHg 90%
    15:00 +7°C° 0,1 mm 3 m/s 733 mmHg 90%
    16:00 +7°C° 0,1 mm 3 m/s 733 mmHg 90%
    17:00 +8°C° 0,1 mm 2 m/s 732 mmHg 90%
    18:00 +7°C° 0,2 mm 2 m/s 732 mmHg 92%
    19:00 +7°C° 0,2 mm 2 m/s 732 mmHg 94%
    20:00 +6°C° 0,2 mm 2 m/s 732 mmHg 96%
    21:00 +6°C° 0,1 mm 2 m/s 732 mmHg 96%
    22:00 +6°C° 0,1 mm 2 m/s 732 mmHg 96%
    23:00 +6°C° 0,1 mm 2 m/s 732 mmHg 96%
    Arată mai mult